![]() |
EMODnet Physics ERDDAP
Easier access to scientific data |
log in|
Brought to you by EMODnet Physics |
| Dataset Title: | NDBC - Collection of dew point temperature (DEWT) TimeSeries - IN SITU MultiPointTimeSeriesObservation
|
| Institution: | NDBC (Dataset ID: TS_DEWT_NDBC) |
| Information: | Summary
| License
| FGDC
| ISO 19115
| Metadata
| Background
| Subset
| Data Access Form
| Make a graph
|
| Name | Last modified | Size | Description | |
|---|---|---|---|---|
| Parent Directory | - | - | ||
| FRWL1_TS_DEWT_012010.nc | 02-Dec-2024 14:52 | 1460823 | ||
| FRWL1_TS_DEWT_012011.nc | 02-Dec-2024 15:33 | 1626728 | ||
| FRWL1_TS_DEWT_012012.nc | 02-Dec-2024 16:29 | 1472775 | ||
| FRWL1_TS_DEWT_012013.nc | 02-Dec-2024 17:18 | 1464757 | ||
| FRWL1_TS_DEWT_012014.nc | 02-Dec-2024 18:05 | 1626916 | ||
| FRWL1_TS_DEWT_012015.nc | 02-Dec-2024 18:50 | 1626272 | ||
| FRWL1_TS_DEWT_012016.nc | 02-Dec-2024 19:36 | 1625437 | ||
| FRWL1_TS_DEWT_012017.nc | 02-Dec-2024 20:21 | 1626751 | ||
| FRWL1_TS_DEWT_012018.nc | 02-Dec-2024 20:56 | 1468823 | ||
| FRWL1_TS_DEWT_012019.nc | 02-Dec-2024 21:40 | 1626500 | ||
| FRWL1_TS_DEWT_012020.nc | 02-Dec-2024 22:11 | 1625821 | ||
| FRWL1_TS_DEWT_012021.nc | 02-Dec-2024 22:43 | 1625853 | ||
| FRWL1_TS_DEWT_022011.nc | 02-Dec-2024 15:37 | 1626326 | ||
| FRWL1_TS_DEWT_022012.nc | 02-Dec-2024 16:33 | 1625357 | ||
| FRWL1_TS_DEWT_022013.nc | 02-Dec-2024 17:22 | 1626856 | ||
| FRWL1_TS_DEWT_022014.nc | 02-Dec-2024 18:08 | 1626965 | ||
| FRWL1_TS_DEWT_022015.nc | 02-Dec-2024 18:54 | 1626966 | ||
| FRWL1_TS_DEWT_022016.nc | 02-Dec-2024 19:41 | 428839 | ||
| FRWL1_TS_DEWT_022017.nc | 02-Dec-2024 20:24 | 1475176 | ||
| FRWL1_TS_DEWT_022018.nc | 02-Dec-2024 20:59 | 1470062 | ||
| FRWL1_TS_DEWT_022019.nc | 02-Dec-2024 21:44 | 1626677 | ||
| FRWL1_TS_DEWT_022020.nc | 02-Dec-2024 22:14 | 1460505 | ||
| FRWL1_TS_DEWT_022021.nc | 02-Dec-2024 22:46 | 1626687 | ||
| FRWL1_TS_DEWT_032010.nc | 02-Dec-2024 14:56 | 1626494 | ||
| FRWL1_TS_DEWT_032011.nc | 02-Dec-2024 15:42 | 1626955 | ||
| FRWL1_TS_DEWT_032012.nc | 02-Dec-2024 16:37 | 1626388 | ||
| FRWL1_TS_DEWT_032013.nc | 02-Dec-2024 17:26 | 1626924 | ||
| FRWL1_TS_DEWT_032014.nc | 02-Dec-2024 18:12 | 1626063 | ||
| FRWL1_TS_DEWT_032015.nc | 02-Dec-2024 18:57 | 1626939 | ||
| FRWL1_TS_DEWT_032016.nc | 02-Dec-2024 19:45 | 1626854 | ||
| FRWL1_TS_DEWT_032017.nc | 02-Dec-2024 20:27 | 1625529 | ||
| FRWL1_TS_DEWT_032018.nc | 02-Dec-2024 21:02 | 1625666 | ||
| FRWL1_TS_DEWT_032019.nc | 02-Dec-2024 21:48 | 1625294 | ||
| FRWL1_TS_DEWT_032020.nc | 02-Dec-2024 22:17 | 1626785 | ||
| FRWL1_TS_DEWT_032021.nc | 02-Dec-2024 22:51 | 1626942 | ||
| FRWL1_TS_DEWT_032023.nc | 02-Dec-2024 23:14 | 1626632 | ||
| FRWL1_TS_DEWT_042010.nc | 02-Dec-2024 14:59 | 424044 | ||
| FRWL1_TS_DEWT_042011.nc | 02-Dec-2024 15:47 | 1474211 | ||
| FRWL1_TS_DEWT_042012.nc | 02-Dec-2024 16:41 | 1476433 | ||
| FRWL1_TS_DEWT_042013.nc | 02-Dec-2024 17:29 | 1474262 | ||
| FRWL1_TS_DEWT_042014.nc | 02-Dec-2024 18:15 | 1471378 | ||
| FRWL1_TS_DEWT_042015.nc | 02-Dec-2024 19:00 | 1471142 | ||
| FRWL1_TS_DEWT_042016.nc | 02-Dec-2024 19:50 | 1157583 | ||
| FRWL1_TS_DEWT_042017.nc | 02-Dec-2024 20:30 | 1477069 | ||
| FRWL1_TS_DEWT_042018.nc | 02-Dec-2024 21:04 | 1477063 | ||
| FRWL1_TS_DEWT_042020.nc | 02-Dec-2024 22:20 | 1476165 | ||
| FRWL1_TS_DEWT_042021.nc | 02-Dec-2024 22:52 | 1476956 | ||
| FRWL1_TS_DEWT_042023.nc | 02-Dec-2024 23:16 | 1476851 | ||
| FRWL1_TS_DEWT_052010.nc | 02-Dec-2024 15:03 | 1477073 | ||
| FRWL1_TS_DEWT_052011.nc | 02-Dec-2024 15:51 | 1476947 | ||
| FRWL1_TS_DEWT_052012.nc | 02-Dec-2024 16:46 | 1476233 | ||
| FRWL1_TS_DEWT_052013.nc | 02-Dec-2024 17:33 | 1476846 | ||
| FRWL1_TS_DEWT_052014.nc | 02-Dec-2024 18:18 | 1477080 | ||
| FRWL1_TS_DEWT_052015.nc | 02-Dec-2024 19:04 | 1477094 | ||
| FRWL1_TS_DEWT_052016.nc | 02-Dec-2024 19:54 | 1476918 | ||
| FRWL1_TS_DEWT_052017.nc | 02-Dec-2024 20:33 | 429713 | ||
| FRWL1_TS_DEWT_052018.nc | 02-Dec-2024 21:08 | 1476628 | ||
| FRWL1_TS_DEWT_052020.nc | 02-Dec-2024 22:24 | 1626655 | ||
| FRWL1_TS_DEWT_052021.nc | 02-Dec-2024 22:54 | 1476247 | ||
| FRWL1_TS_DEWT_052023.nc | 02-Dec-2024 23:19 | 1476469 | ||
| FRWL1_TS_DEWT_062009.nc | 02-Dec-2024 14:35 | 1626869 | ||
| FRWL1_TS_DEWT_062010.nc | 02-Dec-2024 15:06 | 1476328 | ||
| FRWL1_TS_DEWT_062011.nc | 02-Dec-2024 15:56 | 1626835 | ||
| FRWL1_TS_DEWT_062012.nc | 02-Dec-2024 16:50 | 1626969 | ||
| FRWL1_TS_DEWT_062013.nc | 02-Dec-2024 17:37 | 1476263 | ||
| FRWL1_TS_DEWT_062014.nc | 02-Dec-2024 18:21 | 1626784 | ||
| FRWL1_TS_DEWT_062015.nc | 02-Dec-2024 19:08 | 1626801 | ||
| FRWL1_TS_DEWT_062016.nc | 02-Dec-2024 19:58 | 1626946 | ||
| FRWL1_TS_DEWT_062017.nc | 02-Dec-2024 20:36 | 1626790 | ||
| FRWL1_TS_DEWT_062018.nc | 02-Dec-2024 21:11 | 1626550 | ||
| FRWL1_TS_DEWT_062020.nc | 02-Dec-2024 22:27 | 1626510 | ||
| FRWL1_TS_DEWT_062021.nc | 02-Dec-2024 22:57 | 1626663 | ||
| FRWL1_TS_DEWT_062023.nc | 02-Dec-2024 23:22 | 1626556 | ||
| FRWL1_TS_DEWT_072009.nc | 02-Dec-2024 14:39 | 1626955 | ||
| FRWL1_TS_DEWT_072010.nc | 02-Dec-2024 15:09 | 429454 | ||
| FRWL1_TS_DEWT_072011.nc | 02-Dec-2024 16:00 | 1474769 | ||
| FRWL1_TS_DEWT_072012.nc | 02-Dec-2024 16:54 | 1476635 | ||
| FRWL1_TS_DEWT_072013.nc | 02-Dec-2024 17:42 | 1476431 | ||
| FRWL1_TS_DEWT_072014.nc | 02-Dec-2024 18:25 | 1473781 | ||
| FRWL1_TS_DEWT_072015.nc | 02-Dec-2024 19:12 | 1476329 | ||
| FRWL1_TS_DEWT_072016.nc | 02-Dec-2024 20:02 | 1477029 | ||
| FRWL1_TS_DEWT_072017.nc | 02-Dec-2024 20:38 | 1476938 | ||
| FRWL1_TS_DEWT_072018.nc | 02-Dec-2024 21:15 | 1476408 | ||
| FRWL1_TS_DEWT_072020.nc | 02-Dec-2024 22:30 | 1472120 | ||
| FRWL1_TS_DEWT_072021.nc | 02-Dec-2024 22:59 | 1476811 | ||
| FRWL1_TS_DEWT_082009.nc | 02-Dec-2024 14:42 | 1477019 | ||
| FRWL1_TS_DEWT_082010.nc | 02-Dec-2024 15:13 | 1476908 | ||
| FRWL1_TS_DEWT_082011.nc | 02-Dec-2024 16:05 | 1475788 | ||
| FRWL1_TS_DEWT_082012.nc | 02-Dec-2024 16:58 | 1472013 | ||
| FRWL1_TS_DEWT_082013.nc | 02-Dec-2024 17:45 | 1477092 | ||
| FRWL1_TS_DEWT_082014.nc | 02-Dec-2024 18:28 | 1477093 | ||
| FRWL1_TS_DEWT_082015.nc | 02-Dec-2024 19:15 | 1477102 | ||
| FRWL1_TS_DEWT_082016.nc | 02-Dec-2024 20:05 | 429908 | ||
| FRWL1_TS_DEWT_082017.nc | 02-Dec-2024 20:41 | 1624699 | ||
| FRWL1_TS_DEWT_082018.nc | 02-Dec-2024 21:17 | 1626117 | ||
| FRWL1_TS_DEWT_082020.nc | 02-Dec-2024 22:32 | 1624862 | ||
| FRWL1_TS_DEWT_082021.nc | 02-Dec-2024 23:01 | 1462536 | ||
| FRWL1_TS_DEWT_082022.nc | 02-Dec-2024 23:08 | 1626874 | ||
| FRWL1_TS_DEWT_092009.nc | 02-Dec-2024 14:46 | 1626605 | ||
| FRWL1_TS_DEWT_092010.nc | 02-Dec-2024 15:17 | 1626792 | ||
| FRWL1_TS_DEWT_092011.nc | 02-Dec-2024 16:10 | 1625062 | ||
| FRWL1_TS_DEWT_092012.nc | 02-Dec-2024 17:03 | 1477697 | ||
| FRWL1_TS_DEWT_092013.nc | 02-Dec-2024 17:50 | 1626752 | ||
| FRWL1_TS_DEWT_092014.nc | 02-Dec-2024 18:32 | 1626868 | ||
| FRWL1_TS_DEWT_092015.nc | 02-Dec-2024 19:19 | 1477141 | ||
| FRWL1_TS_DEWT_092016.nc | 02-Dec-2024 20:10 | 1626001 | ||
| FRWL1_TS_DEWT_092017.nc | 02-Dec-2024 20:43 | 1626853 | ||
| FRWL1_TS_DEWT_092018.nc | 02-Dec-2024 21:20 | 1626299 | ||
| FRWL1_TS_DEWT_092019.nc | 02-Dec-2024 21:53 | 1474875 | ||
| FRWL1_TS_DEWT_092021.nc | 02-Dec-2024 23:04 | 1626918 | ||
| FRWL1_TS_DEWT_092022.nc | 02-Dec-2024 23:09 | 1833326 | ||
| FRWL1_TS_DEWT_092023.nc | 02-Dec-2024 23:33 | 1829346 | ||
| FRWL1_TS_DEWT_102010.nc | 02-Dec-2024 15:21 | 1306682 | ||
| FRWL1_TS_DEWT_102011.nc | 02-Dec-2024 16:15 | 1649097 | ||
| FRWL1_TS_DEWT_102012.nc | 02-Dec-2024 17:07 | 1663722 | ||
| FRWL1_TS_DEWT_102013.nc | 02-Dec-2024 17:54 | 1654089 | ||
| FRWL1_TS_DEWT_102014.nc | 02-Dec-2024 18:37 | 1707158 | ||
| FRWL1_TS_DEWT_102015.nc | 02-Dec-2024 19:24 | 1670561 | ||
| FRWL1_TS_DEWT_102016.nc | 02-Dec-2024 20:13 | 1817452 | ||
| FRWL1_TS_DEWT_102017.nc | 02-Dec-2024 20:46 | 1828084 | ||
| FRWL1_TS_DEWT_102018.nc | 02-Dec-2024 21:25 | 1675908 | ||
| FRWL1_TS_DEWT_102019.nc | 02-Dec-2024 21:58 | 1666502 | ||
| FRWL1_TS_DEWT_102020.nc | 02-Dec-2024 22:35 | 1665320 | ||
| FRWL1_TS_DEWT_102021.nc | 02-Dec-2024 23:07 | 1674093 | ||
| FRWL1_TS_DEWT_102022.nc | 02-Dec-2024 23:12 | 1832597 | ||
| FRWL1_TS_DEWT_102023.nc | 02-Dec-2024 23:36 | 1672638 | ||
| FRWL1_TS_DEWT_112010.nc | 02-Dec-2024 15:25 | 1643546 | ||
| FRWL1_TS_DEWT_112011.nc | 02-Dec-2024 16:20 | 1831248 | ||
| FRWL1_TS_DEWT_112012.nc | 02-Dec-2024 17:10 | 1670966 | ||
| FRWL1_TS_DEWT_112013.nc | 02-Dec-2024 17:58 | 1676055 | ||
| FRWL1_TS_DEWT_112014.nc | 02-Dec-2024 18:42 | 1633559 | ||
| FRWL1_TS_DEWT_112015.nc | 02-Dec-2024 19:28 | 1681756 | ||
| FRWL1_TS_DEWT_112016.nc | 02-Dec-2024 20:16 | 1831179 | ||
| FRWL1_TS_DEWT_112017.nc | 02-Dec-2024 20:49 | 1676171 | ||
| FRWL1_TS_DEWT_112018.nc | 02-Dec-2024 21:30 | 1650137 | ||
| FRWL1_TS_DEWT_112019.nc | 02-Dec-2024 22:02 | 1829347 | ||
| FRWL1_TS_DEWT_112020.nc | 02-Dec-2024 22:37 | 1832719 | ||
| FRWL1_TS_DEWT_112023.nc | 02-Dec-2024 23:40 | 1830947 | ||
| FRWL1_TS_DEWT_122009.nc | 02-Dec-2024 14:48 | 1637152 | ||
| FRWL1_TS_DEWT_122010.nc | 02-Dec-2024 15:29 | 1834970 | ||
| FRWL1_TS_DEWT_122011.nc | 02-Dec-2024 16:24 | 1671168 | ||
| FRWL1_TS_DEWT_122012.nc | 02-Dec-2024 17:13 | 1672698 | ||
| FRWL1_TS_DEWT_122013.nc | 02-Dec-2024 18:01 | 667928 | ||
| FRWL1_TS_DEWT_122014.nc | 02-Dec-2024 18:46 | 1273337 | ||
| FRWL1_TS_DEWT_122015.nc | 02-Dec-2024 19:33 | 1828341 | ||
| FRWL1_TS_DEWT_122016.nc | 02-Dec-2024 20:19 | 1828259 | ||
| FRWL1_TS_DEWT_122017.nc | 02-Dec-2024 20:52 | 1674021 | ||
| FRWL1_TS_DEWT_122018.nc | 02-Dec-2024 21:35 | 1671020 | ||
| FRWL1_TS_DEWT_122019.nc | 02-Dec-2024 22:07 | 1005379 | ||
| FRWL1_TS_DEWT_122020.nc | 02-Dec-2024 22:40 | 1824568 | ||
| FRWL1_TS_DEWT_122023.nc | 02-Dec-2024 23:44 | 1831900 | ||